sat.trackr.live / text

‹ back to catalog

ONEWEB-0121

NORAD 47267 · 2020-100K

PAYLOAD ACTIVE UNKNOWN

§ Identity

Operator
Country
UK
Launch date
2020-12-18
Launch site
VOSTO
Launch vehicle
Mass (kg)
RCS (m²)

Purposes: comms

External: N2YO · Heavens-Above · Gunter

§ Orbital elements

Epoch: 2026-05-25T02:48:39.054816Z

Period
109.72 min
Inclination
87.8960°
Eccentricity
0.0002006
Mean motion
13.12441099 rev/d
Perigee alt
1,212.2 km
Apogee alt
1,215.3 km
Semi-major
7,591.9 km
B*
1.0596e-3
RAAN
355.2442°
Arg perigee
79.0660°
Mean anomaly
281.0694°
Rev number
26,161

§ Raw data

ONEWEB-01211 47267U 20100K   26145.11711869  .00000394  00000+0  10596-2 0  99992 47267  87.8960 355.2442 0002006  79.0660 281.0694 13.12441099261617

JSON: /api/v1/satellites/47267 · /tle

For live sub-satellite position, see the globe view (requires WebGL).

§ Visibility from observer

Set your observer location to see the next 7 days of passes ≥ 10°. The values pass through the URL so the page stays shareable.

No JS? Fill the form by hand. The geolocation button needs JavaScript.